AO-07 1 07530U 74089B 22125.49906741 -.00000035 00000-0 68657-4 0 9990 2 07530 101.9023 105.2379 0012534 123.0489 353.4398 12.53654575172088 UO-11 1 14781U 84021B 22125.49000715 .00001078 00000-0 13677-3 0 9997 2 14781 97.6162 114.8894 0010003 101.1095 259.1245 14.83596363 33675 LO-19 1 20442U 90005G 22125.44057995 .00000159 00000-0 74649-4 0 9990 2 20442 98.7905 89.6539 0010748 298.1506 61.8591 14.33049672686945 HUBBLE 1 20580U 90037B 22125.35692789 .00003897 00000-0 22050-3 0 9994 2 20580 28.4699 94.3275 0002390 291.1161 196.6038 15.10391449559694 MET-2/21 1 22782U 93055A 22125.57395038 .00000049 00000-0 30502-4 0 9992 2 22782 82.5520 48.2676 0023622 106.7041 66.2835 13.83851264448076 AO-27 1 22825U 93061C 22125.34838677 .00000133 00000-0 69105-4 0 9998 2 22825 98.8909 155.4662 0008641 170.0473 190.0881 14.30164107491990 IO-26 1 22826U 93061D 22125.31204648 .00000159 00000-0 78591-4 0 9998 2 22826 98.8853 155.3112 0009414 157.8443 202.3148 14.30508511492240 FO-29 1 24278U 96046B 22125.32497605 .00000012 00000-0 47280-4 0 9994 2 24278 98.5205 154.9352 0350907 35.3669 327.0209 13.53114349269777 NOAA-15 1 25338U 98030A 22125.55233348 .00000204 00000-0 10341-3 0 9994 2 25338 98.6480 155.6409 0011426 66.3110 293.9268 14.26118789247154 GO-32 1 25397U 98043D 22125.56007352 .00000082 00000-0 55381-4 0 9996 2 25397 98.8145 75.9230 0000770 168.3850 191.7346 14.23748631237321 ISS 1 25544U 98067A 22125.43344516 .00007947 00000-0 14734-3 0 9991 2 25544 51.6432 188.3271 0006638 67.7258 299.2035 15.49941064338558 NO-44 1 26931U 01043C 22125.52928743 .00000109 00000-0 73365-4 0 9999 2 26931 67.0501 169.1917 0007964 269.6575 90.3614 14.30691910 75269 SO-50 1 27607U 02058C 22125.57133104 .00001183 00000-0 18366-3 0 9993 2 27607 64.5552 73.1187 0075956 302.8614 56.5193 14.76061013 42042 CO-55 1 27844U 03031E 22125.44789914 .00000290 00000-0 14993-3 0 9990 2 27844 98.6802 133.7822 0009018 221.1951 138.8547 14.22428238977752 CO-57 1 27848U 03031J 22125.46789875 .00000240 00000-0 12833-3 0 9998 2 27848 98.6848 134.3300 0008706 236.6758 123.3586 14.21988384977577 RS-22 1 27939U 03042A 22125.57331067 .00000817 00000-0 15360-3 0 9997 2 27939 98.1858 266.3216 0012406 349.1475 10.9457 14.67288282994751 NOAA-18 1 28654U 05018A 22125.42848317 .00000230 00000-0 14804-3 0 9993 2 28654 98.9507 195.8950 0015395 93.8555 266.4377 14.12723460873902 CO-58 1 28895U 05043F 22125.60587385 .00001155 00000-0 22780-3 0 9992 2 28895 98.0999 257.6628 0015328 276.3607 83.5850 14.64255902881143 Falconsat-3 1 30776U 07006E 22125.54671623 .00049195 00000-0 83619-3 0 9990 2 30776 35.4302 180.7378 0000576 175.4806 184.5931 15.50367184842910 CO-65 1 32785U 08021C 22125.50381236 .00002452 00000-0 26330-3 0 9996 2 32785 97.6546 97.7275 0013363 23.7399 336.4433 14.89411648760094 AAUSAT2 1 32788U 08021F 22125.46663419 .00005402 00000-0 47273-3 0 9997 2 32788 97.5332 112.3218 0009210 268.0548 91.9620 14.97092769762008 DO-64 1 32789U 08021G 22125.50214659 .00019303 00000-0 11031-2 0 9998 2 32789 97.3422 153.3792 0012797 112.6363 247.6223 15.12664968765435 CO-66 1 32791U 08021J 22125.46969934 .00004299 00000-0 42454-3 0 9991 2 32791 97.6093 103.2371 0012070 341.3891 18.6886 14.92408923760781 RS-30 1 32953U 08025A 22125.56196207 .00000021 00000-0 80971-4 0 9997 2 32953 82.5067 210.5951 0018835 357.8704 2.2293 12.43109439633000 PRISM 1 33493U 09002B 22125.44116436 .00007741 00000-0 63645-3 0 9990 2 33493 98.2316 109.5699 0011510 311.6269 48.3966 14.99400190722530 NOAA-19 1 33591U 09005A 22125.49564145 .00000175 00000-0 11951-3 0 9998 2 33591 99.1521 158.7214 0013031 311.3524 48.6525 14.12558397682387 SRMSAT 1 37841U 11058D 22125.39315050 .00000434 00000-0 93344-4 0 9994 2 37841 19.9705 155.1985 0011679 230.4275 157.5773 14.10746057545157 HRBE 1 37855U 11061F 22125.48541210 .00019502 00000-0 86815-3 0 9992 2 37855 101.7037 221.9052 0157280 191.1371 168.6348 15.11095352574741 RS-40 1 38735U 12041C 22125.49973024 .00000019 00000-0 67613-4 0 9991 2 38735 82.4716 292.2780 0017959 103.9750 256.3330 12.42585418443184 ZACUBE-1 1 39417U 13066B 22125.43328277 .00001954 00000-0 24472-3 0 9999 2 39417 97.6338 98.8880 0057736 184.0476 176.0279 14.82168689456753 Delfi-N3xt 1 39428U 13066N 22125.54849474 .00004611 00000-0 71457-3 0 9998 2 39428 97.8127 61.7641 0119506 55.4815 305.7606 14.68898422452232 GOMX-1 1 39430U 13066Q 22125.48726497 .00001293 00000-0 23897-3 0 9991 2 39430 97.8123 35.1398 0149274 179.8125 180.3121 14.60068957450023 LO-74 1 39440U 13066AA 22125.43487973 .00002044 00000-0 28422-3 0 9994 2 39440 97.7230 84.8147 0077255 271.1678 88.0682 14.76876775453934 AO-73 1 39444U 13066AE 22125.48083235 .00002782 00000-0 33727-3 0 9999 2 39444 97.6220 101.3340 0057044 172.3045 187.9059 14.83209402455158 SPROUT 1 39770U 14029E 22125.28713923 .00008684 00000-0 89677-3 0 9995 2 39770 97.9365 241.9910 0007725 223.2484 136.8128 14.90382180431237 DTUSAT-2 1 40030U 14033W 22125.52842484 .00002507 00000-0 26724-3 0 9995 2 40030 97.9358 58.1349 0011294 187.3311 172.7743 14.89754514427250 EO-80 1 40032U 14033Y 22125.36543826 .00004264 00000-0 45060-3 0 9993 2 40032 97.9366 57.9842 0011202 188.7566 171.3458 14.89727742427208 HODOYOSHI-1 1 40299U 14070B 22125.54554344 .00005769 00000-0 22362-3 0 9997 2 40299 97.2452 194.9424 0010834 292.3008 174.7840 15.26467215416515 FIREBIRD FU3 1 40377U 15003B 22125.50102651 .00024188 00000-0 75063-3 0 9999 2 40377 99.1064 340.8813 0104517 170.1290 190.2031 15.28127878401850 FIREBIRD FU4 1 40378U 15003C 22125.39828257 .00033321 00000-0 10287-2 0 9999 2 40378 99.1068 340.9563 0104415 170.1475 190.1841 15.28222598401842 GRIFEX 1 40379U 15003D 22125.47424311 .00015449 00000-0 56028-3 0 9997 2 40379 99.1165 327.4222 0117915 210.7888 148.6391 15.22071689401082 XW-2A 1 40903U 15049E 22125.54665789 .00020647 00000-0 34888-3 0 9990 2 40903 97.1835 184.0644 0008401 275.9550 220.1062 15.51597914372602 XW-2C 1 40906U 15049H 22125.51602962 .00006513 00000-0 31738-3 0 9991 2 40906 97.4934 129.2869 0015223 143.1237 336.8360 15.18577640366400 XW-2D 1 40907U 15049J 22125.55223838 .00007390 00000-0 35382-3 0 9990 2 40907 97.4923 129.2702 0014790 138.4901 317.8182 15.19152964366453 LILACSAT-2 1 40908U 15049K 22125.51688859 .00003718 00000-0 19925-3 0 9990 2 40908 97.5159 126.5342 0016081 159.8978 317.4227 15.15511027365980 XW-2E 1 40909U 15049L 22125.51646815 .00011362 00000-0 48968-3 0 9990 2 40909 97.4667 133.6712 0013959 120.4915 39.1037 15.22647337366878 XW-2F 1 40910U 15049M 22125.54981925 .00011221 00000-0 49080-3 0 9999 2 40910 97.4744 132.8303 0015346 121.9457 336.9474 15.22128016366659 XW-2B 1 40911U 15049N 22125.51278509 .00007336 00000-0 35239-3 0 9997 2 40911 97.4911 129.8448 0014516 139.5108 340.7445 15.19046817366338 DCBB 1 40912U 15049P 22125.51176280 .00013229 00000-0 52942-3 0 9999 2 40912 97.4382 137.1444 0015437 94.7964 26.9424 15.25089383367203 TW-1A 1 40928U 15051D 22125.52224581 .00037740 00000-0 53637-3 0 9994 2 40928 97.0434 148.6459 0009258 168.2645 297.5584 15.56253650371554 IO-86 1 40931U 15052B 22124.55349837 .00001187 00000-0 75916-4 0 9994 2 40931 5.9981 122.2362 0013587 270.2269 89.6364 14.76788224356842 AO-85 1 40967U 15058D 22124.45090795 .00004164 00000-0 43596-3 0 3567 2 40967 64.7752 205.9624 0200514 214.2079 144.5815 14.77269488 54164 ATHENOXAT-1 1 41168U 15077C 22125.46271747 .00016083 00000-0 69232-3 0 9993 2 41168 14.9896 48.7974 0009820 352.2358 153.5389 15.19805788353754 ChubuSat-2 1 41338U 16012B 22125.51543559 .00002973 00000-0 21945-3 0 9993 2 41338 31.0031 297.2607 0013376 86.0534 274.1631 15.01202017341021 ChubuSat-3 1 41339U 16012C 22125.51067883 .00002713 00000-0 19919-3 0 9995 2 41339 31.0119 294.2444 0013202 93.3242 266.8898 15.01296871341024 Horyu-4 1 41340U 16012D 22124.81155281 .00003847 00000-0 27235-3 0 9998 2 41340 31.0047 277.7823 0013310 125.3804 234.8078 15.03011516341155 e-st@r-II 1 41459U 16025D 22125.43747739 .00013174 00000-0 57872-3 0 9991 2 41459 98.1816 287.4448 0147982 55.8617 305.6483 15.12644325330994 AAUSAT4 1 41460U 16025E 22125.44988863 .00018526 00000-0 73403-3 0 9993 2 41460 98.1769 293.2842 0129004 33.2055 327.7172 15.18013840331413 LO-87 1 41557U 16033B 22125.53015056 .00014720 00000-0 45493-3 0 9994 2 41557 97.3858 223.1963 0012210 165.5200 293.7330 15.33548633330807 NuSat2 1 41558U 16033C 22125.54697271 .00013530 00000-0 39297-3 0 9994 2 41558 97.4046 228.6759 0011593 154.7583 304.5400 15.35541622331069 Lapan A3 1 41603U 16040E 22125.54005596 .00001660 00000-0 78744-4 0 9998 2 41603 97.2103 164.4287 0012153 317.9312 184.8559 15.20539976325511 Pratham 1 41783U 16059A 22125.34913347 .00000715 00000-0 14657-3 0 9999 2 41783 97.9177 168.6212 0032281 311.7332 48.1111 14.63314909299328 TY-1 1 41844U 16066D 22125.52944762 .00014764 00000-0 51950-3 0 9996 2 41844 97.3915 137.7548 0015832 83.2757 68.1693 15.29314119305044 CAS-2T 1 41847U 16066G 22125.42786750 .00000978 00000-0 15729-3 0 9995 2 41847 98.5537 190.1342 0363618 338.7519 19.8889 14.38530441288167 EO-88 1 42017U 17008BX 22125.11870880 .00016219 00000-0 50804-3 0 9994 2 42017 97.2714 191.8988 0005874 57.6508 302.5303 15.33151979290433 CAS-4B 1 42759U 17034B 22125.57279877 .00005570 00000-0 33500-3 0 9997 2 42759 43.0178 208.9989 0008527 8.4024 128.4529 15.11582465269867 CAS-4A 1 42761U 17034D 22125.60531994 .00005669 00000-0 33979-3 0 9994 2 42761 43.0174 207.6389 0009273 12.4122 92.5054 15.11675721269872 NIUSat 1 42766U 17036B 22125.37901272 .00017956 00000-0 70712-3 0 9993 2 42766 97.2059 164.7523 0015781 117.9924 242.2914 15.25548538270236 Aalto 1 1 42775U 17036L 22125.33279010 .00014154 00000-0 56810-3 0 9997 2 42775 97.2018 164.6979 0014531 116.8796 243.3930 15.24980701270200 URSA MAIOR 1 42776U 17036M 22125.06605803 .00007918 00000-0 31485-3 0 9992 2 42776 97.2031 165.1282 0014267 116.9620 243.3078 15.25451795270190 Max Valier Sat 1 42778U 17036P 22125.39079757 .00017202 00000-0 66497-3 0 9991 2 42778 97.2096 167.9833 0013077 116.7912 243.4666 15.26213496270330 Pegasus 1 42784U 17036V 22125.36312209 .00023187 00000-0 85065-3 0 9998 2 42784 97.2028 168.7092 0012345 118.3942 241.8544 15.27894077270435 NUDATSat 1 42787U 17036Y 22125.54015884 .00019930 00000-0 64686-3 0 9997 2 42787 97.2059 172.6730 0011092 109.9802 250.2646 15.31925721270527 SUCHAI 1 1 42788U 17036Z 22125.07856921 .00013762 00000-0 48408-3 0 9992 2 42788 97.2038 169.9537 0011698 115.6169 244.6282 15.29390244270550 SKCUBE 1 42789U 17036AA 22125.38298375 .00025216 00000-0 89988-3 0 9995 2 42789 97.2037 169.7623 0011736 115.6044 244.6410 15.28792265270493 VZLUSAT 1 1 42790U 17036AB 22125.34842366 .00037585 00000-0 12183-2 0 9992 2 42790 97.2062 172.4629 0010667 110.6925 249.5461 15.31842027270648 VENTA 1 1 42791U 17036AC 22125.07364389 .00011013 00000-0 40100-3 0 9996 2 42791 97.2038 169.3839 0011376 116.6644 243.5763 15.28314264270431 Robusta 1B 1 42792U 17036AD 22125.09036616 .00012289 00000-0 43487-3 0 9995 2 42792 97.2034 170.0104 0011272 116.3173 243.9226 15.29225031270499 D-SAT 1 42794U 17036AF 22125.30563008 .00003823 00000-0 32792-3 0 9992 2 42794 97.4528 133.0001 0122259 229.0852 129.9731 14.92431675265041 TechnoSat 1 42829U 17042E 22125.49115193 .00001765 00000-0 18012-3 0 9998 2 42829 97.4263 342.1280 0014827 145.8850 214.3326 14.91743063261683 QIKCOM-1 1 42983U 98067NF 22125.26493273 .00171931 00000-0 62808-3 0 9993 2 42983 51.6330 49.5106 0004734 122.7352 237.4110 15.87364528258058 AO-91 1 43017U 17073E 22125.54419168 .00006464 00000-0 49054-3 0 9998 2 43017 97.6791 21.4849 0248917 328.6952 29.9639 14.81104927240764 PICSAT 1 43132U 18004X 22125.15623940 .00026097 00000-0 89326-3 0 9993 2 43132 97.3728 201.8050 0009114 146.9962 213.1849 15.30175183239780 AO-92 1 43137U 18004AC 22125.16299933 .00018894 00000-0 68252-3 0 9991 2 43137 97.3695 200.7333 0008990 148.7429 211.4347 15.28481048239735 TianYi 2 1 43155U 18008A 22125.57688125 .00008471 00000-0 45942-3 0 9996 2 43155 97.3559 185.3626 0014834 295.7393 198.7502 15.14714212236783 Zhou Enlai 1 43156U 18008B 22125.51440177 .00009139 00000-0 49947-3 0 9995 2 43156 97.3610 185.1662 0011926 297.7473 169.2250 15.14452568236708 TianYi 6 1 43158U 18008D 22125.60656169 .00007625 00000-0 42839-3 0 9998 2 43158 97.3563 183.3194 0011222 297.7980 194.7902 15.13530531236623 S-Net D 1 43186U 18014G 22125.53976654 .00002764 00000-0 24035-3 0 9999 2 43186 97.6599 32.0986 0012294 84.2845 275.9779 14.97726508232491 S-Net B 1 43187U 18014H 22125.47304428 .00002754 00000-0 23956-3 0 9997 2 43187 97.6596 31.9868 0012251 84.3700 275.8919 14.97724802232489 S-Net A 1 43188U 18014J 22125.47330176 .00002746 00000-0 23887-3 0 9991 2 43188 97.6601 32.0478 0012286 84.4282 275.8341 14.97724126232488 S-Net C 1 43189U 18014K 22125.54075990 .00002785 00000-0 24217-3 0 9991 2 43189 97.6596 32.0423 0012334 84.2222 276.0406 14.97722543231045 FMN 1 1 43192U 18015A 22125.59371735 .00029834 00000-0 85013-3 0 9992 2 43192 97.5286 269.6338 0012921 181.4816 242.7407 15.35956451236864 Shaonian Xing 1 43199U 18015H 22125.56593929 .00019282 00000-0 60891-3 0 9990 2 43199 97.5060 265.1775 0014008 191.0621 235.8630 15.32781978236875 SurfSat 1 43614U 18070B 22125.42287716 .00048992 00000-0 81391-3 0 9990 2 43614 93.0300 80.5200 0012040 165.8453 194.3148 15.51842545204386 CP-7 DAVE 1 43615U 18070C 22125.40268266 .00062915 00000-0 10760-2 0 9990 2 43615 93.0300 80.3933 0012204 166.9077 193.2503 15.50974401204350 ELFIN-B 1 43616U 18070D 22125.38398751 .00144798 00000-0 17253-2 0 9995 2 43616 93.0203 81.3146 0012307 153.6104 206.5792 15.60535464204629 ELFIN-A 1 43617U 18070E 22125.37525458 .00154908 00000-0 17381-2 0 9997 2 43617 93.0282 82.5654 0012132 148.0361 212.1644 15.62073308204662 CubeBel-1 1 43666U 18083E 22125.61924322 .00010865 00000-0 47178-3 0 9996 2 43666 97.4239 154.8062 0015273 121.1389 337.3157 15.22384366194968 Changshagaoxin 1 43669U 18083H 22125.55749168 .00010204 00000-0 46381-3 0 9997 2 43669 97.4185 150.8530 0011537 116.9530 345.8255 15.20880858194784 Ten-Koh 1 43677U 18084G 22125.59734215 .00001696 00000-0 17712-3 0 9999 2 43677 97.9573 255.2788 0016903 55.9979 304.2842 14.90974616191291 PO-101 1 43678U 18084H 22125.59859863 .00001612 00000-0 16428-3 0 9998 2 43678 97.9630 258.3809 0011229 70.0774 290.1653 14.92090490191464 IRVINE 01 1 43693U 18088D 22125.34557986 .00066939 00000-0 19695-2 0 9994 2 43693 85.0303 340.0125 0010779 269.5051 90.4963 15.34756114193600 QO-100 1 43700U 18090A 22125.31387439 .00000149 00000-0 00000-0 0 9996 2 43700 0.0388 96.4048 0002446 337.3617 288.2251 1.00276036 12592 Reaktor Hello World 1 43743U 18096AA 22125.52705883 .00018669 00000-0 58883-3 0 9990 2 43743 97.3530 205.6087 0015243 207.6425 152.4008 15.32805751191388 MinXSS-2 1 43758U 18099A 22125.14221421 .00003950 00000-0 34658-3 0 9999 2 43758 97.6262 194.1062 0016491 56.1439 304.1349 14.97085520186621 AO-95 1 43770U 18099N 22125.45801882 .00003911 00000-0 35114-3 0 9997 2 43770 97.6223 192.9249 0015426 64.2630 296.0182 14.96198578186581 RANGE-B 1 43772U 18099Q 22125.46957795 .00005361 00000-0 47263-3 0 9994 2 43772 97.6331 194.5118 0014825 52.4933 307.7634 14.96761249186609 RANGE-A 1 43773U 18099R 22125.43614863 .00003379 00000-0 30681-3 0 9991 2 43773 97.6150 191.8521 0014195 51.2463 309.0024 14.95860984186560 MOVE-II 1 43780U 18099Y 22125.45237546 .00008365 00000-0 72377-3 0 9998 2 43780 97.6255 193.9414 0013728 60.3931 299.8657 14.97336332186622 SNUSat 2 1 43782U 18099AA 22125.44322631 .00004399 00000-0 39266-3 0 9992 2 43782 97.6223 193.3600 0013177 49.9252 310.3123 14.96387883186608 SnugLite 1 43784U 18099AC 22125.15232947 .00004550 00000-0 40364-3 0 9992 2 43784 97.6199 192.7262 0016121 58.0608 302.2178 14.96581239186585 ITASat 1 1 43786U 18099AE 22125.45593175 .00004462 00000-0 39797-3 0 9990 2 43786 97.6247 193.8170 0015879 56.9700 303.3045 14.96381722186625 EAGLET 1 1 43790U 18099AJ 22125.42355417 .00003238 00000-0 28873-3 0 9990 2 43790 97.6252 194.3096 0014551 60.1581 300.1085 14.96601424186352 ESEO 1 43792U 18099AL 22125.14217421 .00001486 00000-0 13692-3 0 9999 2 43792 97.6208 193.3141 0014569 59.0140 301.2511 14.96101152186351 CSIM 1 43793U 18099AM 22125.44530966 .00006104 00000-0 52075-3 0 9995 2 43793 97.6259 194.7769 0012942 52.1698 308.0693 14.98002573186449 Astrocast 0.1 1 43798U 18099AS 22125.43366912 .00007459 00000-0 64712-3 0 9992 2 43798 97.6256 194.7194 0012756 39.0966 321.1176 14.97280419186671 JO-97 1 43803U 18099AX 22125.42032002 .00005469 00000-0 48094-3 0 9992 2 43803 97.6220 193.5279 0016138 56.3515 303.9244 14.96829656186631 Suomi 100 1 43804U 18099AY 22125.43554942 .00004606 00000-0 40685-3 0 9996 2 43804 97.6208 193.4735 0015788 55.4650 304.8060 14.96742643186641 Al Farabi 2 1 43805U 18099AZ 22125.50468899 .00002961 00000-0 26020-3 0 9999 2 43805 97.6224 193.9783 0015760 54.4211 305.8482 14.97220650186672 CHOMPTT 1 43855U 18104G 22125.32922530 .00018690 00000-0 70458-3 0 9998 2 43855 85.0354 79.8813 0017790 46.1551 314.1160 15.26794459188144 ISAT 1 43879U 18111D 22125.50954988 .00003644 00000-0 31529-3 0 9993 2 43879 97.6686 31.8992 0014426 101.2699 259.0145 14.97708014183247 UWE-4 1 43880U 18111E 22125.25041032 .00004556 00000-0 39126-3 0 9998 2 43880 97.6709 32.3182 0013328 102.7274 257.5439 14.97883398183234 Sparrow 1 43881U 18111F 22125.47211660 .00004579 00000-0 39203-3 0 9990 2 43881 97.6709 32.7456 0013547 102.1231 258.1510 14.97999107183270 Lume 1 1 43908U 18111AJ 22125.14781800 .00016932 00000-0 59136-3 0 9995 2 43908 97.1965 14.3311 0017441 223.6112 136.3751 15.29497632186773 FO-99 1 43937U 19003F 22125.07382961 .00010923 00000-0 38122-3 0 9991 2 43937 97.1345 160.1357 0019163 311.6352 48.3247 15.29588281183347 MYSat 1 1 44045U 18092F 22125.47671795 .00057395 00000-0 97052-3 0 9990 2 44045 51.6336 286.5613 0009625 295.3640 64.6352 15.50977452181196 AstroCast 0.2 1 44083U 19018F 22125.42081655 .00011523 00000-0 45202-3 0 9999 2 44083 97.3252 185.1344 0009817 280.1245 79.8886 15.25855666171927 AISTechSat 3 1 44103U 19018AB 22125.11239951 .00008715 00000-0 33365-3 0 9998 2 44103 97.3116 185.2327 0010620 289.9287 70.0808 15.26737586172039 AISat 1 1 44104U 19018AC 22125.21256575 .00011877 00000-0 34030-3 0 9994 2 44104 97.3952 208.2033 0051487 288.3408 71.2239 15.34720212172962 Prox-1 1 44339U 19036A 22125.32285977 .00006800 00000-0 15071-2 0 9997 2 44339 24.0000 105.7042 0011441 104.4958 255.6803 14.54771462152066 Oculus-ASR 1 44348U 19036K 22125.32844823 .00077312 -49301-5 80250-3 0 9999 2 44348 28.5025 128.7055 0259102 189.2067 170.3713 15.31321529157914 Armadillo 1 44352U 19036P 22125.17160032 .00203251 35757-5 13679-2 0 9992 2 44352 28.5255 66.4377 0174257 287.3839 70.7778 15.55843791158475 NO-104 1 44354U 19036R 22125.28185862 .00099665 -41886-5 99289-3 0 9999 2 44354 28.5264 116.3497 0250258 206.1789 152.5965 15.33954492158030 Move-IIb 1 44398U 19038N 22125.57958261 .00014770 00000-0 73427-3 0 9999 2 44398 97.6248 94.5779 0020485 279.3498 80.5408 15.17560531156537 SONATE 1 44400U 19038Q 22125.57549938 .00006267 00000-0 34474-3 0 9991 2 44400 97.6354 93.9089 0022259 282.3492 77.5242 15.14221183156441 BeeSat 9 1 44412U 19038AC 22125.43044544 .00011241 00000-0 58380-3 0 9992 2 44412 97.6333 94.4358 0018370 284.9270 74.9928 15.16130906156173 JAISAT-1 1 44419U 19038F 22125.42965548 .00015749 00000-0 80524-3 0 9996 2 44419 97.6339 95.2387 0017307 281.9810 77.9483 15.16614832156537 LightSail-2 1 44420U 19036AC 22125.47706654 .00074052 00000-0 10854-1 0 9991 2 44420 24.0023 52.8942 0018177 194.5202 165.4772 14.74004003150724 Taurus 1 1 44530U 19059C 22125.54867390 .00003170 00000-0 88538-3 0 9990 2 44530 98.5438 223.6591 0012418 243.7918 116.1967 14.46870927139645 Duchifat 3 1 44854U 19089C 22125.33162783 .00005153 00000-0 40424-3 0 9998 2 44854 36.9686 355.9299 0008328 243.2980 116.6819 15.00756582131451 OPS-SAT 1 44878U 19092F 22125.46214846 .00011788 00000-0 56012-3 0 9991 2 44878 97.4804 309.8051 0013831 127.6748 232.5743 15.19286293131661 TO-108 1 44881U 19093C 22125.49366878 .00000853 00000-0 11494-3 0 9998 2 44881 97.8932 205.3188 0014330 330.9738 29.0669 14.81671973128411 FloripaSat 1 1 44885U 19093G 22125.43414978 .00002815 00000-0 35273-3 0 9992 2 44885 97.8970 206.4302 0013824 337.6659 22.3938 14.82966466128476 RS-44 1 44909U 19096E 22125.42592610 .00000015 00000-0 10474-4 0 9998 2 44909 82.5204 258.8566 0218208 60.5231 301.7445 12.79713131110008 Phoenix 1 45258U 98067RB 22125.43322182 .00315534 00000-0 12098-2 0 9994 2 45258 51.6302 139.4297 0009326 32.9869 327.1716 15.85958340125604 BY70-2 1 45857U 20042B 22125.54816445 .00009852 00000-0 13325-2 0 9996 2 45857 97.9563 202.8189 0009016 246.6511 113.3680 14.79186325 99119 UPMSat 2 1 46276U 20061E 22125.46080212 .00005573 00000-0 27873-3 0 9999 2 46276 97.3931 197.2704 0001137 39.2599 320.8718 15.17823796 92355 AmicalSat 1 46287U 20061R 22125.40975547 .00010799 00000-0 62836-3 0 9993 2 46287 97.4479 196.1856 0003899 79.8147 280.3523 15.12214721 91964 SALSAT 1 46495U 20068K 22125.39549970 .00004610 00000-0 33449-3 0 9999 2 46495 97.7259 66.6974 0017906 65.3521 294.9567 15.04286016 87710 BY70-3 1 46839U 20079N 22125.59492200 .00022222 00000-0 55647-3 0 9991 2 46839 97.2000 198.3038 0007691 127.8667 12.7895 15.40060895 83643 SPOC 1 46921U 98067RR 22125.32494882 .00275491 00000-0 13535-2 0 9991 2 46921 51.6295 153.8584 0006713 21.5121 338.6162 15.80839468 85155 Neutron-1 1 46923U 98067RT 22125.36658981 .00289608 00000-0 14322-2 0 9999 2 46923 51.6299 154.1491 0006681 18.8072 341.3176 15.80659233 85189 CAPE 3 1 47309U 21002A 22125.51879962 .00012131 00000-0 50728-3 0 9990 2 47309 60.6824 165.9567 0015298 283.5037 76.4346 15.23905534 71907 AO-109 1 47311U 21002C 22125.45627061 .00010292 00000-0 42490-3 0 9990 2 47311 60.6838 164.0166 0011291 279.0817 80.8993 15.24528698 71905 MiTEE 1 1 47314U 21002F 22125.56917672 .00022225 00000-0 79947-3 0 9991 2 47314 60.6815 158.1668 0010108 259.6967 100.2983 15.28589255 72031 ExoCube 2 1 47319U 21002L 22125.57407661 .00010563 00000-0 44107-3 0 9991 2 47319 60.6833 164.5343 0012208 283.9525 76.0204 15.24111040 71876 UVSQ-SAT 1 47438U 21006AB 22125.42692652 .00012771 00000-0 68253-3 0 9998 2 47438 97.4401 185.3284 0013490 69.3752 290.8925 15.15146037 70761 YUSAT 1 1 47439U 21006AC 22125.40804042 .00014479 00000-0 76608-3 0 9995 2 47439 97.4407 185.3765 0013168 69.7503 290.5144 15.15476209 70769 SOMP 2b 1 47445U 21006AJ 22125.21859371 .00007736 00000-0 41850-3 0 9995 2 47445 97.4376 184.8261 0013222 73.7549 286.5137 15.14859183 70720 IDEASSat 1 47458U 21006AX 22125.39405523 .00011164 00000-0 60486-3 0 9990 2 47458 97.4462 185.4542 0012259 71.8631 288.3935 15.14705478 70744 RSP-01 1 47925U 98067SB 22125.35406552 .00310329 00000-0 14113-2 0 9999 2 47925 51.6314 163.0725 0008279 20.2432 339.8897 15.82398888 65000 TAUSAT-1 1 47926U 98067SC 22123.94020726 .05013963 12182-4 10618-2 0 9991 2 47926 51.5963 160.1616 0005913 352.3270 7.7661 16.30011657 64906 Tsuru 1 47927U 98067SD 22125.40726107 .00266257 00000-0 16043-2 0 9992 2 47927 51.6332 165.6872 0006750 20.9718 339.1557 15.76327561 64973 Maya-2 1 47929U 98067SF 22125.40761716 .00269739 00000-0 16378-2 0 9998 2 47929 51.6324 165.6889 0006692 22.1410 337.9878 15.76143458 64931 GuaraniSat-1 1 47931U 98067SH 22125.45681416 .00262330 00000-0 15761-2 0 9999 2 47931 51.6322 165.2864 0006682 20.6242 339.5027 15.76404692 64985 CubeSX-Sirius-HSE 1 47951U 21022V 22125.61452016 .00005714 00000-0 38305-3 0 9999 2 47951 97.5340 26.0336 0020062 295.0060 152.3153 15.07093511 61546 CubeSX-HSE 1 47952U 21022W 22125.48646815 .00006135 00000-0 41032-3 0 9996 2 47952 97.5347 25.9265 0019961 294.2537 239.0594 15.07152766 61527 KSU-Cubesat 1 47954U 21022Y 22125.29225316 .00007804 00000-0 51816-3 0 9991 2 47954 97.5339 25.8199 0019148 295.1383 64.7858 15.07346748 61229 GRBAlpha 1 47959U 21022AD 22125.48550403 .00006223 00000-0 41597-3 0 9994 2 47959 97.5351 25.9586 0019745 295.0880 239.8468 15.07172738 60343 Orbicraft-Zorkiy 1 47960U 21022AE 22125.58643816 .00005617 00000-0 37480-3 0 9990 2 47960 97.5366 26.1709 0019128 294.9006 183.6404 15.07291250 61050 STECCO 1 47962U 21022AG 22125.52214388 .00008986 00000-0 56995-3 0 9998 2 47962 97.5341 26.6762 0014216 289.8681 173.3843 15.09054569 60395 DO-111 1 47963U 21022AH 22125.55133307 .00023988 00000-0 13905-2 0 9995 2 47963 97.5351 27.4446 0015074 282.7468 77.2078 15.12082513 60467 MO-110 1 47964U 21022AJ 22125.29275508 .00013068 00000-0 81805-3 0 9990 2 47964 97.5334 26.6713 0016859 286.0277 73.9095 15.09400477 60375 FEES 1 48082U 21022AL 22125.43464471 .00012726 00000-0 79172-3 0 9991 2 48082 97.5346 26.6921 0012792 282.6592 77.3207 15.09683252 60091 RamSat 1 48850U 98067SL 22125.56604824 .00098452 00000-0 99636-3 0 9996 2 48850 51.6368 175.7610 0004435 330.9254 29.1493 15.64479555 50605 TUBIN 1 48900U 21059X 22125.46939216 .00005282 00000-0 29806-3 0 9995 2 48900 97.5462 255.1408 0008902 248.8447 180.3452 15.13548699 47417 IT-SPINS 1 49017U 21013G 22125.62899224 .00014083 00000-0 55604-3 0 9991 2 49017 51.5971 244.5266 0008304 285.7229 74.2832 15.25744351 47240 LEDSAT 1 49069U 21073D 22125.46652496 .00005947 00000-0 38340-3 0 9991 2 49069 97.5257 199.2129 0028920 82.9369 277.5147 15.08332346 39354 CUTE 1 49263U 21088D 22125.45228878 .00008194 00000-0 61496-3 0 9990 2 49263 97.5922 194.2367 0019978 202.7492 157.2850 15.02726979 32968 Binar-1 1 49272U 98067SR 22125.37535785 .00137234 00000-0 14247-2 0 9999 2 49272 51.6357 180.4651 0002464 47.4419 312.6783 15.63679602 32913 Maya-3 1 49273U 98067SS 22125.39635419 .00205943 00000-0 17497-2 0 9990 2 49273 51.6349 178.3525 0004398 26.6996 333.4226 15.68427868 32944 Maya-4 1 49274U 98067ST 22125.40908471 .00202898 00000-0 17432-2 0 9999 2 49274 51.6344 178.4342 0004402 27.9988 332.1245 15.68164576 32940 CUAVA-1 1 49275U 98067SU 22125.61170815 .00085698 00000-0 81044-3 0 9994 2 49275 51.6373 178.0051 0002157 38.4079 93.0181 15.66247948 32911 TeikyoSat 4 1 49396U 21102B 22125.41404984 .00001461 00000-0 12011-3 0 9993 2 49396 97.5312 184.8422 0018489 52.8917 307.3994 15.00527790 26594 Z-Sat 1 49399U 21102E 22125.54187605 .00001578 00000-0 12293-3 0 9999 2 49399 97.5406 185.5015 0024351 21.0195 339.2025 15.02406690 26640 KOSEN 1 1 49402U 21102H 22125.43380413 .00004462 00000-0 33064-3 0 9998 2 49402 97.5341 185.4838 0022339 11.4699 348.7031 15.03414201 26641 HO-113 1 50466U 21131B 22125.60302130 .00000232 00000-0 90450-4 0 9995 2 50466 98.5809 202.8756 0003244 273.9260 86.1556 14.38478621 18750 Tevel 1 50999U 22002R 22125.64344419 .00009265 00000-0 50987-3 0 9999 2 50999 97.4829 193.4152 0011401 199.9055 263.9674 15.14211233 16943 Grizu-263a 1 51025U 22002AT 22125.44223660 .00028404 00000-0 14947-2 0 9993 2 51025 97.4994 193.5910 0013138 205.5935 154.4649 15.15523616 16926 NO-116 1 51031U 22002AZ 22125.12600995 .00009821 00000-0 52914-3 0 9994 2 51031 97.4950 193.1802 0013179 207.8788 152.1739 15.14933832 16870 IRIS-A 1 51044U 22002BN 22125.42182549 .00008017 00000-0 45657-3 0 9993 2 51044 97.4839 193.0841 0008822 203.9992 156.0829 15.13050593 16905 DELFI-PQ 1 51074U 22002CU 22125.15958439 .00019062 00000-0 98109-3 0 9997 2 51074 97.5077 193.6269 0013107 239.3441 120.6501 15.16394386 16893 SO-115 1 51080U 22002DA 22125.44165281 .00015227 00000-0 79727-3 0 9995 2 51080 97.5093 193.8828 0012595 238.1651 121.8356 15.15843244 16938 SO-114 1 51081U 22002DB 22125.44225282 .00015389 00000-0 80559-3 0 9998 2 51081 97.5083 193.8700 0012938 238.1856 121.8117 15.15844590 16935 GASPACS 1 51439U 98067TB 22125.55672003 .00517128 00000-0 26021-2 0 9999 2 51439 51.6305 180.1464 0015158 19.1510 341.0058 15.79567700 15492 /EX